New York Downtown Manhattan/w, NY

5:21 AM EDT on September 21, 2017 (GMT -0400)
New York Downtown Manhattan/w

Weather History for KJRB - February, 2014

Change the Weather History Date:

Wednesday, February 12, 2014

  Actual Average (KEWR) Record (KEWR)
Temperature  
Mean Temperature 22 °F -  
Max Temperature 26 °F 38 °F 70 °F (1999)
Min Temperature 19 °F 23 °F -1 °F (1979)
Degree Days  
Heating Degree Days 42    
Moisture  
Dew Point 14 °F    
Average Humidity 69    
Maximum Humidity 86    
Minimum Humidity 43    
Precipitation  
Precipitation 0.16 in - - ()
Sea Level Pressure  
Sea Level Pressure 30.49 in    
Wind  
Wind Speed 8 mph (ENE)    
Max Wind Speed 15 mph    
Max Gust Speed 43 mph    
Visibility 10 miles    
Events      
Averages and records for this station are not official NWS values.
T = Trace of Precipitation, MM = Missing Value Source: NWS Daily Summary

Daily Weather History Graph

Daily Weather History Graph

Search for Another Location

Airport or City:

Trip Planner

Search our weather history database for the weather conditions in past years. The results will help you decide how hot, cold, wet, or windy it might be!

Date:

Astronomy

Feb. 12, 2014 Rise Set
Actual Time 6:53 AM EST 5:27 PM EST
Civil Twilight 6:25 AM EST 5:55 PM EST
Nautical Twilight 5:53 AM EST 6:27 PM EST
Astronomical Twilight 5:21 AM EST 6:59 PM EST
Moon 3:38 PM EST (2/12) 5:09 AM EST (2/12)
Length of Visible Light 11h 29m
Length of Day
10h 33m
Waxing Gibbous, 95% of the Moon is Illuminated
Feb 12
Waxing Gibbous
Feb 14
Full
Feb 22
Last Quarter
Mar 1
New
Mar 8
First Quarter

Hourly Weather History & Observations

Time (EST) Temp. Windchill Dew Point Humidity Pressure Visibility Wind Dir Wind Speed Gust Speed Precip Events Conditions
12:15 AM 21.2 °F 14.9 °F 10.4 °F 63% 30.49 in 10.0 mi NE 4.6 mph - N/A   Clear
12:35 AM 19.4 °F 8.6 °F 10.4 °F 68% 30.49 in 10.0 mi ENE 9.2 mph 19.6 mph N/A   Clear
12:55 AM 19.4 °F 8.6 °F 10.4 °F 68% 30.49 in 10.0 mi ENE 9.2 mph 19.6 mph N/A   Clear
1:15 AM 19.4 °F 10.4 °F 10.4 °F 68% 30.49 in 10.0 mi East 6.9 mph - N/A   Clear
1:35 AM 19.4 °F 10.4 °F 10.4 °F 68% 30.50 in 10.0 mi ENE 6.9 mph - N/A   Clear
1:55 AM 19.4 °F 10.4 °F 10.4 °F 68% 30.50 in 10.0 mi ENE 6.9 mph - N/A   Clear
2:15 AM 19.4 °F 10.4 °F 8.6 °F 63% 30.50 in 10.0 mi ENE 6.9 mph - N/A   Clear
2:35 AM 19.4 °F 7.9 °F 10.4 °F 68% 30.50 in 10.0 mi NE 10.4 mph 16.1 mph N/A   Clear
2:55 AM 19.4 °F 10.4 °F 10.4 °F 68% 30.50 in 10.0 mi East 6.9 mph - N/A   Clear
3:15 AM 19.4 °F 10.4 °F 10.4 °F 68% 30.50 in 10.0 mi East 6.9 mph - N/A   Clear
3:35 AM 19.4 °F 9.5 °F 10.4 °F 68% 30.51 in 10.0 mi ENE 8.1 mph - N/A   Clear
3:55 AM 19.4 °F 8.6 °F 10.4 °F 68% 30.50 in 10.0 mi ENE 9.2 mph - N/A   Clear
4:15 AM 19.4 °F - 12.2 °F 74% 30.52 in 10.0 mi Calm Calm - N/A   Clear
4:35 AM 19.4 °F 11.5 °F 12.2 °F 74% 30.51 in 10.0 mi NNE 5.8 mph 18.4 mph N/A   Clear
4:55 AM 19.4 °F 10.4 °F 12.2 °F 74% 30.53 in 10.0 mi ENE 6.9 mph - N/A   Clear
5:15 AM 19.4 °F 7.9 °F 12.2 °F 74% 30.52 in 10.0 mi NE 10.4 mph 16.1 mph N/A   Clear
5:35 AM 21.2 °F 8.9 °F 14.0 °F 74% 30.53 in 10.0 mi NE 12.7 mph 19.6 mph N/A   Clear
5:55 AM 19.4 °F 6.6 °F 12.2 °F 74% 30.52 in 10.0 mi ENE 12.7 mph 17.3 mph N/A   Clear
6:15 AM 19.4 °F 9.5 °F 15.8 °F 86% 30.53 in 10.0 mi East 8.1 mph - N/A   Clear
6:35 AM 19.4 °F 5.5 °F 15.8 °F 86% 30.53 in 10.0 mi ENE 15.0 mph 19.6 mph N/A   Clear
6:55 AM 19.4 °F 6.6 °F 12.2 °F 74% 30.54 in 10.0 mi NE 12.7 mph 19.6 mph N/A   Clear
7:15 AM 19.4 °F 7.2 °F 15.8 °F 86% 30.56 in 10.0 mi ENE 11.5 mph - N/A   Clear
7:35 AM 19.4 °F 6.6 °F 15.8 °F 86% 30.56 in 10.0 mi NE 12.7 mph 18.4 mph N/A   Clear
8:15 AM 21.2 °F 9.5 °F 15.8 °F 80% 30.57 in 10.0 mi NE 11.5 mph 18.4 mph N/A   Clear
8:35 AM 23.0 °F 13.1 °F 15.8 °F 74% 30.58 in 10.0 mi East 9.2 mph - N/A   Clear
8:55 AM 23.0 °F 11.7 °F 15.8 °F 74% 30.58 in 10.0 mi ENE 11.5 mph - N/A   Clear
9:15 AM 23.0 °F 11.1 °F 14.0 °F 68% 30.57 in 10.0 mi ENE 12.7 mph - N/A   Clear
9:35 AM 21.2 °F 10.1 °F 10.4 °F 63% 30.56 in 10.0 mi NE 10.4 mph - N/A   Clear
9:55 AM 21.2 °F 8.3 °F 12.2 °F 68% 30.55 in 10.0 mi ENE 13.8 mph - N/A   Clear
10:15 AM 21.2 °F 10.9 °F 12.2 °F 68% 30.56 in 10.0 mi ENE 9.2 mph - N/A   Clear
10:35 AM 23.0 °F 13.9 °F 12.2 °F 63% 30.56 in 10.0 mi ENE 8.1 mph - N/A   Clear
10:55 AM 23.0 °F 15.8 °F 10.4 °F 59% 30.56 in 10.0 mi East 5.8 mph - 0.02 in   Clear
11:15 AM 24.8 °F 16.1 °F 10.4 °F 54% 30.57 in 10.0 mi ENE 8.1 mph - N/A   Clear
11:35 AM 24.8 °F 16.9 °F 8.6 °F 50% 30.57 in 10.0 mi ENE 6.9 mph - N/A   Clear
11:55 AM 24.8 °F 15.3 °F 10.4 °F 54% 30.55 in 10.0 mi East 9.2 mph - N/A   Clear
12:15 PM 24.8 °F 14.6 °F 12.2 °F 59% 30.54 in 10.0 mi ENE 10.4 mph - N/A   Clear
12:35 PM 24.8 °F 13.4 °F 10.4 °F 54% 30.52 in 10.0 mi ENE 12.7 mph - N/A   Clear
12:55 PM 24.8 °F 14.6 °F 10.4 °F 54% 30.50 in 10.0 mi ENE 10.4 mph 17.3 mph N/A   Clear
1:15 PM 26.6 °F 17.5 °F 12.2 °F 55% 30.51 in 10.0 mi East 9.2 mph - N/A   Clear
1:35 PM 26.6 °F 19.1 °F 10.4 °F 51% 30.51 in 10.0 mi NE 6.9 mph - N/A   Clear
1:55 PM 26.6 °F 19.1 °F 10.4 °F 51% 30.50 in 10.0 mi NE 6.9 mph - N/A   Clear
2:15 PM 26.6 °F 17.5 °F 10.4 °F 51% 30.49 in 10.0 mi NE 9.2 mph - N/A   Clear
2:35 PM 26.6 °F 17.5 °F 8.6 °F 47% 30.49 in 10.0 mi NE 9.2 mph 42.6 mph 0.13 in   Clear
2:55 PM 26.6 °F 22.6 °F 6.8 °F 43% 30.49 in 10.0 mi NNE 3.5 mph - 0.13 in   Clear
3:15 PM 26.6 °F 18.2 °F 10.4 °F 51% 30.49 in 10.0 mi NE 8.1 mph - N/A   Clear
3:35 PM 26.6 °F 22.6 °F 10.4 °F 51% 30.49 in 10.0 mi NE 3.5 mph - N/A   Clear
3:55 PM 26.6 °F 19.1 °F 10.4 °F 51% 30.48 in 10.0 mi South 6.9 mph - N/A   Clear
4:15 PM 26.6 °F 18.2 °F 12.2 °F 55% 30.49 in 10.0 mi SSE 8.1 mph - N/A   Clear
4:35 PM 24.8 °F 16.1 °F 12.2 °F 59% 30.50 in 10.0 mi South 8.1 mph - N/A   Clear
4:55 PM 24.8 °F 16.1 °F 14.0 °F 64% 30.50 in 10.0 mi SSE 8.1 mph - N/A   Clear
5:15 PM 24.8 °F 16.9 °F 14.0 °F 64% 30.50 in 10.0 mi SE 6.9 mph - N/A   Clear
5:35 PM 24.8 °F 17.9 °F 15.8 °F 69% 30.48 in 10.0 mi South 5.8 mph - N/A   Clear
5:55 PM 24.8 °F 17.9 °F 19.4 °F 80% 30.45 in 10.0 mi ENE 5.8 mph - N/A   Clear
6:15 PM 26.6 °F 17.5 °F 19.4 °F 74% 30.45 in 10.0 mi NE 9.2 mph - N/A   Clear
6:35 PM 26.6 °F 22.6 °F 19.4 °F 74% 30.44 in 10.0 mi ENE 3.5 mph - N/A   Clear
6:55 PM 26.6 °F 20.0 °F 19.4 °F 74% 30.44 in 10.0 mi NNE 5.8 mph - N/A   Clear
7:15 PM 26.6 °F 19.1 °F 19.4 °F 74% 30.43 in 10.0 mi NE 6.9 mph 29.9 mph N/A   Clear
7:35 PM 26.6 °F 18.2 °F 21.2 °F 80% 30.42 in 10.0 mi NE 8.1 mph - 0.01 in   Clear
7:55 PM 26.6 °F 18.2 °F 21.2 °F 80% 30.42 in 10.0 mi NNE 8.1 mph - 0.01 in   Clear
8:15 PM 26.6 °F 18.2 °F 21.2 °F 80% 30.41 in 10.0 mi NE 8.1 mph - N/A   Clear
8:35 PM 26.6 °F 18.2 °F 21.2 °F 80% 30.41 in 10.0 mi NE 8.1 mph - N/A   Scattered Clouds
8:55 PM 26.6 °F 16.8 °F 21.2 °F 80% 30.41 in 10.0 mi NE 10.4 mph - N/A   Mostly Cloudy
9:15 PM 26.6 °F 16.2 °F 21.2 °F 80% 30.39 in 10.0 mi NE 11.5 mph - N/A   Overcast
9:35 PM 26.6 °F 15.2 °F 21.2 °F 80% 30.38 in 10.0 mi NE 13.8 mph - N/A   Overcast
9:55 PM 26.6 °F 16.8 °F 21.2 °F 80% 30.37 in 10.0 mi NE 10.4 mph - N/A   Overcast
10:15 PM 26.6 °F 16.2 °F 21.2 °F 80% 30.35 in 10.0 mi NE 11.5 mph - N/A   Overcast
10:35 PM 26.6 °F 16.2 °F 21.2 °F 80% 30.34 in 10.0 mi NE 11.5 mph - N/A   Overcast
10:55 PM 26.6 °F 16.2 °F 21.2 °F 80% 30.33 in 10.0 mi NNE 11.5 mph - N/A   Overcast
11:15 PM 26.6 °F 16.2 °F 21.2 °F 80% 30.32 in 10.0 mi NE 11.5 mph - N/A   Overcast
11:35 PM 26.6 °F 16.2 °F 21.2 °F 80% 30.31 in 10.0 mi NNE 11.5 mph - N/A   Overcast
11:55 PM 26.6 °F 16.2 °F 21.2 °F 80% 30.30 in 10.0 mi NNE 11.5 mph - N/A   Overcast